Santa Barbara, CA

5:48 PM PST on December 05, 2016 (GMT -0800)
Santa Barbara Municipal

Weather History for KSBA - November, 2012

Change the Weather History Date:

Thursday, November 8, 2012

  Actual Average Record
Temperature  
Mean Temperature 60 °F 58 °F  
Max Temperature 66 °F 70 °F 93 °F (1956)
Min Temperature 54 °F 46 °F 37 °F (1990)
Degree Days  
Heating Degree Days 5 7  
Month to date heating degree days 29 52  
Since 1 July heating degree days 171 269  
Cooling Degree Days 0 0  
Month to date cooling degree days 7 0  
Year to date cooling degree days 220 186  
Growing Degree Days 10 (Base 50)    
Moisture  
Dew Point 50 °F    
Average Humidity 65    
Maximum Humidity 84    
Minimum Humidity 46    
Precipitation  
Precipitation T in 0.04 in 3.70 in (2002)
Month to date precipitation T 0.38  
Year to date precipitation 6.84 13.65  
Since 1 July precipitation 0.14  
Sea Level Pressure  
Sea Level Pressure 29.93 in    
Wind  
Wind Speed 7 mph (NNW)    
Max Wind Speed 17 mph    
Max Gust Speed 23 mph    
Visibility 10 miles    
Events      
T = Trace of Precipitation, MM = Missing Value Source: NWS Daily Summary

Daily Weather History Graph

Daily Weather History Graph

Search for Another Location

Airport or City:

Trip Planner

Search our weather history database for the weather conditions in past years. The results will help you decide how hot, cold, wet, or windy it might be!

Date:

Astronomy

Nov. 08, 2012 Rise Set
Actual Time 6:26 AM PST 4:59 PM PST
Civil Twilight 6:00 AM PST 5:25 PM PST
Nautical Twilight 5:30 AM PST 5:55 PM PST
Astronomical Twilight 5:00 AM PST 6:25 PM PST
Moon 12:41 AM PST (11/8) 1:30 PM PST (11/8)
Length of Visible Light 11h 25m
Length of Day
10h 32m
Waning Crescent, 32% of the Moon is Illuminated
Nov 8
Waning Crescent
Nov 13
New
Nov 20
First Quarter
Nov 28
Full
Dec 6
Last Quarter

Hourly Weather History & Observations

Time (PST) Temp. Dew Point Humidity Pressure Visibility Wind Dir Wind Speed Gust Speed Precip Events Conditions
12:53 AM 61.0 °F 55.0 °F 81% 29.96 in 10.0 mi NE 5.8 mph - N/A   Overcast
1:42 AM 60.8 °F 55.4 °F 82% 29.98 in 10.0 mi ENE 6.9 mph - N/A   Overcast
1:53 AM 61.0 °F 55.0 °F 81% 29.98 in 10.0 mi NE 5.8 mph - N/A   Overcast
2:53 AM 61.0 °F 54.0 °F 78% 29.98 in 10.0 mi North 4.6 mph - N/A   Overcast
3:53 AM 61.0 °F 55.0 °F 81% 29.94 in 10.0 mi ENE 6.9 mph - N/A   Overcast
4:53 AM 61.0 °F 54.0 °F 78% 29.95 in 10.0 mi SE 8.1 mph - N/A   Overcast
5:53 AM 61.0 °F 54.0 °F 78% 29.96 in 10.0 mi SE 9.2 mph - N/A   Overcast
6:53 AM 61.0 °F 55.0 °F 81% 29.98 in 10.0 mi South 5.8 mph - N/A   Overcast
7:53 AM 60.1 °F 55.0 °F 83% 29.99 in 10.0 mi Calm Calm - 0.00 in   Overcast
8:53 AM 61.0 °F 55.0 °F 81% 29.99 in 10.0 mi Calm Calm - N/A   Overcast
9:53 AM 61.0 °F 55.0 °F 81% 29.99 in 9.0 mi Calm Calm - N/A   Overcast
10:53 AM 63.0 °F 55.0 °F 75% 29.97 in 10.0 mi Variable 5.8 mph - N/A   Overcast
11:53 AM 64.9 °F 54.0 °F 68% 29.94 in 10.0 mi SSW 4.6 mph - N/A   Mostly Cloudy
12:53 PM 64.0 °F 53.1 °F 67% 29.91 in 10.0 mi West 5.8 mph - N/A   Overcast
1:53 PM 64.0 °F 52.0 °F 65% 29.90 in 10.0 mi Variable 3.5 mph - N/A   Overcast
2:53 PM 64.9 °F 48.9 °F 56% 29.89 in 10.0 mi NNW 10.4 mph - N/A   Overcast
3:53 PM 63.0 °F 45.0 °F 52% 29.88 in 10.0 mi NNW 13.8 mph - N/A   Overcast
4:53 PM 62.1 °F 44.1 °F 52% 29.86 in 10.0 mi NNW 9.2 mph - N/A   Overcast
5:53 PM 62.1 °F 41.0 °F 46% 29.87 in 10.0 mi North 11.5 mph - N/A   Overcast
6:53 PM 59.0 °F 41.0 °F 51% 29.87 in 10.0 mi NW 12.7 mph 21.9 mph N/A   Overcast
7:53 PM 57.0 °F 41.0 °F 55% 29.88 in 10.0 mi West 6.9 mph 16.1 mph N/A   Partly Cloudy
8:53 PM 55.0 °F 41.0 °F 59% 29.90 in 10.0 mi NW 10.4 mph 17.3 mph N/A   Clear
9:53 PM 57.0 °F 42.1 °F 57% 29.91 in 10.0 mi WNW 9.2 mph - N/A   Scattered Clouds
10:53 PM 55.9 °F 42.1 °F 60% 29.90 in 10.0 mi WNW 9.2 mph - N/A   Partly Cloudy
11:53 PM 55.0 °F 45.0 °F 69% 29.90 in 10.0 mi West 6.9 mph - N/A   Clear